Location: Newark
(13.6797°N, 8.5297°E)
Time: 20:53:39
(UTC+00:00)

Explorer 7 - Visible Passes

Search period start: 26 January 2020 00:00
Search period end: 05 February 2020 00:00
Orbit: 485 x 679 km, 50.3° (Epoch: 26 January)

Date Brightness Start Highest point End Pass type
(mag) Time Alt. Az. Time Alt. Az. Time Alt. Az.
26 Jan 7.9 05:26:04 10° NNW 05:30:02 45° NE 05:34:16 10° SE visible
26 Jan 8.1 19:15:38 10° SW 19:18:12 36° SW 19:18:12 36° SW visible
27 Jan 6.9 05:30:47 10° NW 05:34:55 85° SW 05:39:22 10° SE visible
27 Jan 8.5 19:20:51 10° WSW 19:23:40 31° W 19:23:40 31° W visible
28 Jan 9.4 03:58:27 13° NNE 03:59:22 14° NE 04:01:37 10° E visible
28 Jan 8.0 17:45:35 10° S 17:49:11 27° SE 17:52:37 10° ENE visible
28 Jan 9.2 19:26:46 10° W 19:29:09 17° WNW 19:29:09 17° WNW visible
29 Jan 8.5 04:03:51 26° NE 04:04:20 27° NE 04:07:57 10° ESE visible
29 Jan 6.9 17:49:53 10° SSW 17:54:04 59° SE 17:57:59 10° NE visible
30 Jan 7.3 04:09:19 56° ENE 04:09:19 56° ENE 04:13:26 10° SE visible
30 Jan 7.2 17:54:45 10° SW 17:58:56 62° NW 18:02:53 10° NNE visible
31 Jan 7.2 04:14:48 54° S 04:14:48 54° S 04:18:21 10° SSE visible
31 Jan 8.6 18:00:09 10° WSW 18:03:50 29° NW 18:07:21 10° NNE visible
01 Feb 8.3 04:20:17 25° SSW 04:20:17 25° SSW 04:22:45 10° S visible
01 Feb 9.4 18:06:21 10° W 18:08:47 15° NW 18:11:10 10° NNW visible
02 Feb 9.3 04:25:46 11° SSW 04:25:46 11° SSW 04:26:15 10° SSW visible
